Location: Balmoral
(33.0667°S, 151.5833°E)
Time: 17:30:32
(UTC+00:00)

SL-16 R/B - Pass Details

Date: 18 September 2020
Orbit: 985 x 1007 km, 99.5° (Epoch: 24 October)

Event Time Altitude Azimuth Distance (km) Brightness Sun altitude
Rises 16:36:34 0° 168° (SSE) 3,766 6.0 -39.4°
Reaches altitude 10° 16:39:05 10° 169° (S) 2,809 5.3 -38.9°
Enters shadow 16:41:46 27° 172° (S) 1,829 4.1 -38.4°
